| time (UTC) | temp F | wind direction | speed MPH | gust MPH | rain 1hr in | rain 24hr in | rain mn in | humidity % | barometer mb |
| 20260502210036 | 55 | 23 | 1.0 | 3.0 | 0.00 | 0.00 | 0.00 | 55 | 1019.7 |
| 20260502205016 | 55 | 338 | 2.0 | 4.0 | 0.00 | 0.00 | 0.00 | 56 | 1019.7 |
| 20260502204016 | 55 | 338 | 3.0 | 6.0 | 0.00 | 0.00 | 0.00 | 54 | 1019.7 |
| 20260502203016 | 55 | 23 | 2.0 | 4.0 | 0.00 | 0.00 | 0.00 | 56 | 1019.7 |
| 20260502202016 | 55 | 23 | 1.0 | 4.0 | 0.00 | 0.00 | 0.00 | 56 | 1019.7 |
| 20260502201016 | 55 | 23 | 3.0 | 7.0 | 0.00 | 0.00 | 0.00 | 56 | 1019.7 |
| 20260502200016 | 55 | 23 | 3.0 | 4.0 | 0.00 | 0.00 | 0.00 | 57 | 1019.6 |
| 20260502195036 | 56 | 23 | 1.0 | 3.0 | 0.00 | 0.00 | 0.00 | 54 | 1019.5 |
| 20260502194016 | 58 | 23 | 2.0 | 7.0 | 0.00 | 0.00 | 0.00 | 52 | 1019.4 |
| 20260502193016 | 59 | 23 | 2.0 | 6.0 | 0.00 | 0.00 | 0.00 | 49 | 1019.3 |
| 20260502192016 | 59 | 23 | 3.0 | 9.0 | 0.00 | 0.00 | 0.00 | 49 | 1019.2 |
| 20260502191056 | 59 | 23 | 4.0 | 7.0 | 0.00 | 0.00 | 0.00 | 48 | 1019.0 |
| 20260502190016 | 59 | 23 | 3.0 | 9.0 | 0.00 | 0.00 | 0.00 | 49 | 1018.9 |
| 20260502185036 | 58 | 338 | 3.0 | 6.0 | 0.00 | 0.00 | 0.00 | 51 | 1018.8 |
| 20260502184016 | 59 | 23 | 3.0 | 7.0 | 0.00 | 0.00 | 0.00 | 51 | 1018.7 |
| 20260502183037 | 59 | 338 | 2.0 | 4.0 | 0.00 | 0.00 | 0.00 | 52 | 1018.7 |
| 20260502182016 | 59 | 23 | 3.0 | 6.0 | 0.00 | 0.00 | 0.00 | 52 | 1018.5 |
| 20260502181016 | 60 | 23 | 3.0 | 6.0 | 0.00 | 0.00 | 0.00 | 53 | 1018.5 |
| 20260502164015 | 66 | 68 | 7.0 | 13.0 | 0.00 | 0.00 | 0.00 | 44 | 1017.9 |
| 20260502163016 | 66 | 68 | 5.0 | 9.0 | 0.00 | 0.00 | 0.00 | 43 | 1017.8 |
| 20260502162015 | 66 | 68 | 8.0 | 15.0 | 0.00 | 0.00 | 0.00 | 43 | 1017.8 |
| 20260502161015 | 66 | 68 | 7.0 | 12.0 | 0.00 | 0.00 | 0.00 | 43 | 1017.8 |
| 20260502152015 | 66 | 68 | 8.0 | 14.0 | 0.00 | 0.00 | 0.00 | 40 | 1017.9 |
| 20260502151038 | 67 | 90 | 10.0 | 19.0 | 0.00 | 0.00 | 0.00 | 39 | 1017.9 |
| 20260502123017 | 67 | 45 | 7.0 | 18.0 | 0.00 | 0.00 | 0.00 | 44 | 1018.9 |
| 20260502122017 | 67 | 45 | 12.0 | 20.0 | 0.00 | 0.00 | 0.00 | 43 | 1019.0 |
| 20260502121017 | 68 | 45 | 9.0 | 17.0 | 0.00 | 0.00 | 0.00 | 42 | 1018.9 |
| 20260502115017 | 67 | 45 | 12.0 | 25.0 | 0.00 | 0.00 | 0.00 | 42 | 1018.8 |
| 20260502114017 | 67 | 45 | 12.0 | 22.0 | 0.00 | 0.00 | 0.00 | 40 | 1018.8 |
| 20260502113017 | 67 | 45 | 12.0 | 23.0 | 0.00 | 0.00 | 0.00 | 42 | 1018.9 |
| 20260502112017 | 66 | 23 | 10.0 | 18.0 | 0.00 | 0.00 | 0.00 | 41 | 1019.1 |
| 20260502111017 | 67 | 23 | 13.0 | 24.0 | 0.00 | 0.00 | 0.00 | 42 | 1019.0 |
| 20260502110017 | 67 | 45 | 11.0 | 21.0 | 0.00 | 0.00 | 0.00 | 43 | 1019.1 |
| 20260502105017 | 66 | 68 | 12.0 | 25.0 | 0.00 | 0.00 | 0.00 | 42 | 1019.2 |
| 20260502104017 | 66 | 23 | 11.0 | 23.0 | 0.00 | 0.00 | 0.00 | 41 | 1019.3 |
| 20260502103017 | 66 | 45 | 11.0 | 24.0 | 0.00 | 0.00 | 0.00 | 40 | 1019.4 |
| 20260502102037 | 66 | 68 | 11.0 | 22.0 | 0.00 | 0.00 | 0.00 | 41 | 1019.5 |
| 20260502101017 | 66 | 90 | 10.0 | 20.0 | 0.00 | 0.00 | 0.00 | 42 | 1019.5 |
| 20260502091017 | 64 | 45 | 12.0 | 20.0 | 0.00 | 0.00 | 0.00 | 40 | 1019.6 |
| 20260502071017 | 61 | 68 | 9.0 | 20.0 | 0.00 | 0.00 | 0.00 | 50 | 1019.9 |
| 20260502070017 | 60 | 45 | 10.0 | 21.0 | 0.00 | 0.00 | 0.00 | 52 | 1019.8 |
| 20260502065016 | 60 | 45 | 11.0 | 26.0 | 0.00 | 0.00 | 0.00 | 52 | 1019.8 |
| 20260502064016 | 59 | 68 | 11.0 | 20.0 | 0.00 | 0.00 | 0.00 | 56 | 1019.8 |
| 20260502063016 | 59 | 45 | 12.0 | 23.0 | 0.00 | 0.00 | 0.00 | 56 | 1019.8 |
| 20260502062016 | 58 | 68 | 9.0 | 16.0 | 0.00 | 0.00 | 0.00 | 61 | 1019.8 |
| 20260502061016 | 58 | 90 | 8.0 | 15.0 | 0.00 | 0.00 | 0.00 | 62 | 1019.8 |
| 20260502060017 | 57 | 68 | 6.0 | 12.0 | 0.00 | 0.00 | 0.00 | 64 | 1019.9 |
| 20260502055016 | 56 | 90 | 5.0 | 12.0 | 0.00 | 0.00 | 0.00 | 65 | 1019.8 |
| 20260502054016 | 56 | 68 | 6.0 | 11.0 | 0.00 | 0.00 | 0.00 | 66 | 1019.8 |
| 20260502053016 | 55 | 90 | 6.0 | 14.0 | 0.00 | 0.00 | 0.00 | 67 | 1019.8 |
| 20260502052016 | 55 | 68 | 6.0 | 10.0 | 0.00 | 0.00 | 0.00 | 68 | 1019.8 |
| 20260502051016 | 54 | 68 | 7.0 | 12.0 | 0.00 | 0.00 | 0.00 | 69 | 1019.7 |
| 20260502050016 | 54 | 90 | 4.0 | 8.0 | 0.00 | 0.00 | 0.00 | 71 | 1019.6 |
| 20260502045017 | 53 | 68 | 2.0 | 6.0 | 0.00 | 0.00 | 0.00 | 72 | 1019.6 |
| 20260502044016 | 52 | 68 | 3.0 | 8.0 | 0.00 | 0.00 | 0.00 | 73 | 1019.5 |
| 20260502043016 | 52 | 45 | 3.0 | 7.0 | 0.00 | 0.00 | 0.00 | 73 | 1019.5 |
| 20260502042016 | 52 | 68 | 4.0 | 8.0 | 0.00 | 0.00 | 0.00 | 73 | 1019.3 |
| 20260502041016 | 52 | 68 | 4.0 | 10.0 | 0.00 | 0.00 | 0.00 | 74 | 1019.3 |
| 20260502040036 | 51 | 90 | 3.0 | 8.0 | 0.00 | 0.00 | 0.00 | 74 | 1019.3 |
| 20260502035016 | 51 | 68 | 3.0 | 7.0 | 0.00 | 0.00 | 0.00 | 75 | 1019.2 |
| 20260502034016 | 50 | 45 | 1.0 | 4.0 | 0.00 | 0.00 | 0.00 | 75 | 1019.2 |
| 20260502033016 | 50 | 0.0 | 3.0 | 0.00 | 0.00 | 0.00 | 75 | 1019.1 | |
| 20260502032036 | 50 | 23 | 1.0 | 3.0 | 0.00 | 0.00 | 0.00 | 75 | 1019.1 |
| 20260502031036 | 50 | 45 | 2.0 | 5.0 | 0.00 | 0.00 | 0.00 | 74 | 1019.1 |
| 20260502030016 | 50 | 338 | 1.0 | 3.0 | 0.00 | 0.00 | 0.00 | 73 | 1019.1 |
| 20260502025016 | 50 | 338 | 1.0 | 4.0 | 0.00 | 0.00 | 0.00 | 73 | 1019.1 |
| 20260502024016 | 50 | 0.0 | 2.0 | 0.00 | 0.00 | 0.00 | 72 | 1019.2 | |
| 20260502023036 | 50 | 0.0 | 2.0 | 0.00 | 0.00 | 0.00 | 70 | 1019.2 | |
| 20260502022016 | 50 | 293 | 1.0 | 2.0 | 0.00 | 0.00 | 0.00 | 70 | 1019.1 |
| 20260502021016 | 50 | 270 | 1.0 | 3.0 | 0.00 | 0.00 | 0.00 | 71 | 1019.3 |
| 20260502020016 | 51 | 0.0 | 0.0 | 0.00 | 0.00 | 0.00 | 69 | 1019.3 | |
| 20260502015016 | 51 | 0.0 | 1.0 | 0.00 | 0.00 | 0.00 | 68 | 1019.2 | |
| 20260502014016 | 50 | 90 | 1.0 | 4.0 | 0.00 | 0.00 | 0.00 | 68 | 1019.2 |
| 20260502013016 | 51 | 293 | 2.0 | 3.0 | 0.00 | 0.00 | 0.00 | 67 | 1019.2 |
| 20260502012016 | 51 | 315 | 1.0 | 4.0 | 0.00 | 0.00 | 0.00 | 67 | 1019.1 |
| 20260502011016 | 52 | 45 | 2.0 | 7.0 | 0.00 | 0.00 | 0.00 | 66 | 1019.2 |
| 20260502010016 | 52 | 68 | 4.0 | 10.0 | 0.00 | 0.00 | 0.00 | 65 | 1019.3 |
| 20260502005016 | 52 | 45 | 3.0 | 6.0 | 0.00 | 0.00 | 0.00 | 64 | 1019.4 |
| 20260502004036 | 52 | 45 | 5.0 | 11.0 | 0.00 | 0.00 | 0.00 | 63 | 1019.4 |
| 20260502003016 | 52 | 45 | 4.0 | 9.0 | 0.00 | 0.00 | 0.00 | 62 | 1019.4 |
| 20260502002036 | 53 | 45 | 6.0 | 12.0 | 0.00 | 0.00 | 0.00 | 61 | 1019.6 |
| 20260502001017 | 53 | 45 | 5.0 | 9.0 | 0.00 | 0.00 | 0.00 | 60 | 1019.6 |
| 20260502000015 | 53 | 68 | 6.0 | 13.0 | 0.00 | 0.00 | 0.00 | 59 | 1019.5 |
| 20260501235016 | 53 | 45 | 7.0 | 13.0 | 0.00 | 0.00 | 0.00 | 58 | 1019.5 |
| 20260501234016 | 54 | 68 | 10.0 | 18.0 | 0.00 | 0.00 | 0.00 | 56 | 1019.5 |
| 20260501233016 | 54 | 68 | 6.0 | 14.0 | 0.00 | 0.00 | 0.00 | 56 | 1019.5 |
| 20260501232036 | 50 | 338 | 1.0 | 4.0 | 0.00 | 0.00 | 0.00 | 60 | 1019.4 |
| 20260501231015 | 50 | 0.0 | 3.0 | 0.00 | 0.00 | 0.00 | 59 | 1019.4 | |
| 20260501230016 | 50 | 0.0 | 2.0 | 0.00 | 0.00 | 0.00 | 59 | 1019.3 | |
| 20260501225015 | 50 | 0.0 | 1.0 | 0.00 | 0.00 | 0.00 | 59 | 1019.3 | |
| 20260501224016 | 50 | 0.0 | 2.0 | 0.00 | 0.00 | 0.00 | 59 | 1019.4 | |
| 20260501223015 | 49 | 68 | 2.0 | 4.0 | 0.00 | 0.00 | 0.00 | 58 | 1019.5 |
| 20260501222016 | 49 | 0 | 2.0 | 5.0 | 0.00 | 0.00 | 0.00 | 60 | 1019.7 |
| 20260501221015 | 49 | 23 | 1.0 | 4.0 | 0.00 | 0.00 | 0.00 | 59 | 1019.9 |
| 20260501215016 | 51 | 45 | 2.0 | 4.0 | 0.00 | 0.00 | 0.00 | 57 | 1020.1 |
| 20260501214016 | 51 | 23 | 1.0 | 3.0 | 0.00 | 0.00 | 0.00 | 58 | 1020.0 |
| 20260501213017 | 52 | 90 | 1.0 | 3.0 | 0.00 | 0.00 | 0.00 | 56 | 1020.1 |
| 20260501212016 | 52 | 0.0 | 3.0 | 0.00 | 0.00 | 0.00 | 57 | 1020.1 | |
| 20260501211016 | 53 | 45 | 1.0 | 5.0 | 0.00 | 0.00 | 0.00 | 55 | 1020.1 |